Hourly Data Report for June 13, 2020

OTTAWA INTL A
ONTARIO
Current Station Operator: NAVCAN

45°19'00.000" N
75°40'00.000" W
114.90 m
6106001
71628
YOW

Download Data

Hourly Data (June 2020)
Hourly Data Report for June 13, 2020
TIME Temp Definition
°C
Dew Point Definition
°C
Rel Hum Definition
%
Wind Dir Definition
10's deg

Wind Spd Definition
km/h
Visibility Definition
km
Stn Press Definition
kPa
Hmdx Definition


Wind Chill Definition


Weather Definition


00:00 5.6 2.7 82 32 23 12.9 100.90     Rain Showers
01:00 5.6 3.9 89 30 10 16.1 100.92     Rain
02:00 5.5 4.1 91 31 19 16.1 100.91     Rain
03:00 5.5 4.3 92 30 11 24.1 100.93     LegendNANA
04:00 5.7 4.5 92 30 10 24.1 100.94     Mostly Cloudy
05:00 6.3 4.8 90 31 13 24.1 101.01     LegendNANA
06:00 7.0 4.8 86 32 17 24.1 101.07     LegendNANA
07:00 7.6 4.7 81 31 19 24.1 101.12     Cloudy
08:00 8.5 4.6 77 29 12 24.1 101.21     LegendNANA
09:00 8.9 4.9 76 30 13 24.1 101.27     LegendNANA
10:00 9.8 5.1 72 32 14 24.1 101.27     Cloudy
11:00 11.6 5.2 65 29 19 24.1 101.30     LegendNANA
12:00 12.1 4.4 59 32 16 24.1 101.33     LegendNANA
13:00 14.0 4.9 54 30 12 24.1 101.32     Mainly Clear
14:00 14.6 4.5 50 31 16 24.1 101.33     LegendNANA
15:00 15.3 3.2 44 1 17 24.1 101.31     LegendNANA
16:00 16.7 3.7 41 36 13 24.1 101.28     Mainly Clear
17:00 15.9 2.6 41 1 18 24.1 101.27     LegendNANA
18:00 14.9 1.8 41 2 20 24.1 101.30     LegendNANA
19:00 14.1 2.2 45 36 9 24.1 101.34     Mainly Clear
20:00 11.7 3.0 55 1 8 24.1 101.40     LegendNANA
21:00 10.1 2.3 58 2 3 24.1 101.48     LegendNANA
22:00 10.8 2.4 56 32 5 24.1 101.50     Clear
23:00 8.1 2.7 69 32 8 24.1 101.55     LegendNANA

Notes on Data Quality.

Legend

  • E = Estimated
  • M = Missing
  • NA = Not Available*
  • [empty] = Indicates an unobserved value
Date modified: